Location: Ebenezer
(18.2167°N, 63.0667°W)
Time: 19:09:29
(UTC+00:00)

In-Cosmos 22 Rocket - Pass Details

Date: 26 January 2020
Orbit: 789 x 889 km, 81.2° (Epoch: 19 February)

Event Time Altitude Azimuth Distance (km) Brightness Sun altitude
Rises 23:30:34 0° 189° (S) 3,474 7.7 -20.8°
Reaches altitude 10° 23:33:02 10° 191° (S) 2,530 7.0 -21.3°
Maximum altitude 23:38:47 75° 276° (W) 901 4.4 -22.7°
Drops below altitude 10° 23:44:26 10° 1° (N) 2,481 6.5 -24.0°
Enters shadow 23:45:24 - 2° (N) 2,852 6.8 -24.2°
